CW1327 Weather Reports


Display with metric or nautical units.
time (UTC)temp
F
wind
direction
speed
MPH
gust
MPH
rain 1hr
in
rain 24hr
in
rain mn
in
humidity
%
barometer
mb
20240226141630 33 223 0.0 3.0 0.00 0.00 0.00 97 1008.4
20240226140119 33 205 0.0 2.0 0.00 0.00 0.00 96 1008.2
20240226134631 33 221 0.0 1.0 0.00 0.00 0.00 96 1008.1
20240226133137 33 206 0.0 2.0 0.00 0.00 0.00 96 1008.1
20240226131648 33 140 0.0 1.0 0.00 0.00 0.00 94 1008.1
20240226130126 33 139 0.0 0.0 0.00 0.00 0.00 93 1007.9
20240226124636 34 139 0.0 1.0 0.00 0.00 0.00 93 1007.8
20240226123128 34 207 0.0 0.0 0.00 0.00 0.00 91 1007.8
20240226121628 35 207 0.0 1.0 0.00 0.00 0.00 90 1007.5
20240226120150 36 219 0.0 2.0 0.00 0.00 0.00 90 1007.5
20240226114635 36 78 0.0 0.0 0.00 0.00 0.00 90 1007.6
20240226113204 36 78 0.0 1.0 0.00 0.00 0.00 88 1007.5
20240226111657 36 220 0.0 4.0 0.00 0.00 0.00 88 1007.3
20240226110123 35 205 0.0 2.0 0.00 0.00 0.00 88 1007.1
20240226104627 35 196 0.0 4.0 0.00 0.00 0.00 89 1007.3
20240226103137 34 223 0.0 1.0 0.00 0.00 0.00 93 1007.3
20240226101630 35 223 0.0 1.0 0.00 0.00 0.00 93 1007.3
20240226100122 35 223 0.0 1.0 0.00 0.00 0.00 93 1007.1
20240226094629 36 113 0.0 1.0 0.00 0.00 0.00 93 1007.4
20240226093121 36 86 0.0 1.0 0.00 0.00 0.00 94 1007.3
20240226091633 37 100 2.0 4.0 0.00 0.00 0.00 94 1007.3
20240226090125 37 103 1.0 3.0 0.00 0.00 0.00 94 1007.3
20240226084629 37 219 1.0 6.0 0.00 0.00 0.00 94 1007.3
20240226083127 38 92 2.0 5.0 0.00 0.00 0.00 93 1007.1
20240226081631 38 1 0.0 6.0 0.00 0.00 0.00 93 1007.4
20240226080158 38 104 0.0 7.0 0.00 0.00 0.00 93 1007.3
20240226074624 39 110 2.0 5.0 0.00 0.00 0.00 92 1007.3
20240226073139 39 95 2.0 4.0 0.00 0.00 0.00 92 1007.5
20240226071629 40 84 3.0 7.0 0.00 0.00 0.00 90 1007.4
20240226070125 40 107 3.0 8.0 0.00 0.00 0.00 89 1007.3
20240226064654 40 102 3.0 7.0 0.00 0.00 0.00 87 1007.3
20240226063145 41 98 4.0 12.0 0.00 0.00 0.00 86 1007.0
20240226061708 41 93 4.0 12.0 0.00 0.00 0.00 84 1007.1
20240226060128 42 96 4.0 8.0 0.00 0.00 0.00 83 1006.8
20240226054629 42 99 2.0 10.0 0.00 0.00 0.00 84 1007.0
20240226053136 43 304 3.0 8.0 0.00 0.00 0.00 83 1006.6
20240226051623 43 98 2.0 5.0 0.00 0.00 0.00 82 1006.7
20240226050135 42 128 2.0 6.0 0.00 0.00 0.00 83 1006.7
20240226044632 43 119 4.0 8.0 0.00 0.00 0.00 83 1006.4
20240226043139 43 105 6.0 10.0 0.00 0.00 0.00 83 1006.1
20240226041638 43 104 5.0 10.0 0.00 0.00 0.00 81 1005.8
20240226040154 44 132 1.0 4.0 0.00 0.00 0.00 81 1005.6
20240226034644 44 196 2.0 7.0 0.00 0.00 0.00 81 1005.4
20240226033150 45 113 5.0 10.0 0.00 0.00 0.00 83 1004.8
20240226031630 45 90 5.0 9.0 0.00 0.00 0.00 83 1005.1
20240226030121 46 52 1.0 7.0 0.00 0.00 0.00 85 1004.8
20240226024633 46 110 1.0 9.0 0.00 0.00 0.00 86 1004.5
20240226023141 47 316 1.0 9.0 0.00 0.00 0.00 86 1004.5
20240226021623 48 73 1.0 6.0 0.00 0.00 0.00 88 1004.5
20240226020140 48 132 1.0 5.0 0.00 0.00 0.00 88 1004.5
20240226014634 49 113 0.0 5.0 0.00 0.00 0.00 88 1004.3
20240226013140 49 89 0.0 3.0 0.00 0.00 0.00 87 1004.1
20240226011623 50 214 0.0 7.0 0.00 0.00 0.00 86 1004.1
20240226010136 50 222 2.0 7.0 0.00 0.00 0.00 85 1004.0
20240226004627 51 273 3.0 12.0 0.00 0.00 0.00 84 1003.5
20240226003142 51 181 3.0 12.0 0.00 0.00 0.00 83 1003.5
20240226001635 52 247 5.0 17.0 0.00 0.00 0.00 82 1003.5
20240226000125 52 92 4.0 16.0 0.00 0.00 0.00 82 1003.6
20240225234635 53 224 5.0 14.0 0.00 0.00 0.00 82 1003.3
20240225233142 53 217 7.0 19.0 0.00 0.00 0.00 81 1003.4
20240225231629 54 214 7.0 22.0 0.00 0.00 0.00 81 1003.3
20240225230136 53 229 7.0 20.0 0.00 0.00 0.00 83 1003.2
20240225224630 53 208 9.0 15.0 0.00 0.00 0.00 84 1003.4
20240225223144 54 210 3.0 20.0 0.00 0.00 0.00 84 1003.6
20240225221631 54 248 3.0 23.0 0.00 0.00 0.00 85 1003.9
20240225220153 54 227 6.0 24.0 0.00 0.00 0.00 84 1004.0
20240225214626 53 191 4.0 20.0 0.00 0.00 0.00 85 1004.2
20240225213122 53 248 5.0 21.0 0.00 0.00 0.00 84 1004.6
20240225211655 53 156 6.0 19.0 0.00 0.00 0.00 85 1004.6
20240225210145 53 36 5.0 19.0 0.00 0.00 0.00 87 1005.0
20240225204626 53 51 4.0 18.0 0.00 0.00 0.00 87 1005.3
20240225203126 52 214 8.0 21.0 0.00 0.00 0.00 88 1005.6
20240225201626 52 171 6.0 20.0 0.00 0.00 0.00 89 1006.1
20240225200133 51 60 5.0 19.0 0.00 0.00 0.00 90 1006.7
20240225194636 51 236 6.0 14.0 0.00 0.00 0.00 91 1006.8
20240225193157 50 219 4.0 13.0 0.00 0.00 0.00 93 1007.3
20240225191641 49 277 3.0 19.0 0.00 0.00 0.00 95 1007.7
20240225190128 48 209 3.0 19.0 0.00 0.00 0.00 97 1008.1
20240225184629 48 91 3.0 14.0 0.00 0.00 0.00 97 1008.1
20240225183121 48 231 4.0 15.0 0.00 0.00 0.00 96 1008.3
20240225181630 48 231 4.0 19.0 0.00 0.00 0.00 95 1008.6
20240225180137 48 233 4.0 13.0 0.00 0.00 0.00 94 1008.5
20240225174620 48 82 4.0 13.0 0.00 0.00 0.00 94 1008.5
20240225173126 48 142 3.0 14.0 0.00 0.00 0.00 93 1008.7
20240225171643 48 125 6.0 18.0 0.00 0.00 0.00 93 1009.2
20240225170135 48 170 4.0 13.0 0.00 0.00 0.00 94 1009.6
20240225164637 47 132 3.0 16.0 0.00 0.00 0.00 94 1009.7
20240225163149 47 108 3.0 11.0 0.00 0.00 0.00 94 1009.7
20240225161702 47 240 4.0 13.0 0.00 0.00 0.00 94 1009.9
20240225160128 47 124 4.0 13.0 0.00 0.00 0.00 94 1010.0
20240225153129 47 238 4.0 16.0 0.00 0.00 0.00 94 1010.2
20240225151646 47 212 4.0 9.0 0.00 0.00 0.00 94 1010.1
20240225150123 47 269 3.0 13.0 0.00 0.00 0.00 94 1010.1
20240225144624 47 229 3.0 13.0 0.00 0.00 0.00 94 1010.2
20240225143135 47 283 4.0 19.0 0.00 0.00 0.00 94 1010.2